QPF
0.00 0.01 0.02 0.04 0.11 0.12 0.08 0.02 0.00 0.00 0.00 0.00 0.00 0.01 0.02 0.04 0.06 0.08 0.04 0.01 0.01 0.02 0.03 0.02 0.02 0.03 0.04 0.04 0.05 0.04 0.04 0.04 0.03 0.03 0.06 0.10 0.12 0.10 0.08 0.08 0.07 0.11 0.08 0.07 0.07 0.09 0.10 0.12 0.13
0.00 0.01 0.03 0.08 0.17 0.11 0.07 0.02 0.00 0.00 0.00 0.00 0.00 0.00 0.01 0.02 0.01 0.02 0.03 0.01 0.01 0.01 0.03 0.04 0.03 0.03 0.03 0.03 0.03 0.03 0.05 0.05 0.05 0.04 0.06 0.12 0.14 0.11 0.09 0.08 0.08 0.11 0.08 0.09 0.10 0.12 0.17 0.16 0.10
0.00 0.01 0.06 0.15 0.13 0.09 0.06 0.04 0.01 0.00 0.00 0.00 0.00 0.00 0.01 0.02 0.02 0.02 0.01 0.00 0.01 0.01 0.02 0.04 0.03 0.03 0.03 0.02 0.02 0.03 0.04 0.05 0.06 0.09 0.11 0.15 0.15 0.11 0.09 0.09 0.09 0.10 0.10 0.10 0.14 0.20 0.22 0.16 0.08
0.01 0.05 0.08 0.10 0.09 0.05 0.03 0.02 0.01 0.00 0.00 0.00 0.00 0.00 0.01 0.01 0.01 0.01 0.01 0.00 0.01 0.01 0.01 0.02 0.02 0.02 0.02 0.02 0.02 0.03 0.03 0.04 0.05 0.08 0.12 0.17 0.17 0.13 0.12 0.12 0.15 0.12 0.11 0.11 0.13 0.21 0.18 0.13 0.09
0.04 0.08 0.12 0.09 0.08 0.04 0.03 0.01 0.01 0.01 0.00 0.00 0.01 0.01 0.01 0.01 0.01 0.01 0.01 0.01 0.00 0.01 0.01 0.02 0.02 0.02 0.02 0.01 0.01 0.02 0.02 0.02 0.04 0.06 0.07 0.12 0.19 0.17 0.13 0.14 0.16 0.15 0.11 0.10 0.14 0.15 0.14 0.14 0.11
0.07 0.13 0.11 0.09 0.09 0.03 0.01 0.01 0.01 0.01 0.00 0.00 0.01 0.01 0.02 0.02 0.02 0.01 0.01 0.01 0.00 0.00 0.01 0.02 0.02 0.02 0.02 0.02 0.01 0.02 0.02 0.02 0.04 0.04 0.05 0.07 0.10 0.10 0.08 0.08 0.09 0.08 0.09 0.11 0.14 0.15 0.18 0.16 0.14
0.05 0.07 0.07 0.09 0.07 0.03 0.01 0.01 0.02 0.01 0.01 0.01 0.00 0.01 0.02 0.03 0.02 0.03 0.02 0.01 0.01 0.01 0.01 0.02 0.02 0.02 0.02 0.02 0.01 0.02 0.03 0.04 0.04 0.04 0.04 0.04 0.05 0.07 0.06 0.06 0.06 0.05 0.07 0.09 0.11 0.13 0.14 0.13 0.12
0.03 0.04 0.05 0.06 0.06 0.04 0.01 0.00 0.01 0.01 0.02 0.01 0.00 0.00 0.02 0.03 0.02 0.03 0.03 0.03 0.03 0.02 0.02 0.02 0.03 0.04 0.04 0.03 0.02 0.03 0.04 0.04 0.05 0.04 0.05 0.04 0.04 0.06 0.06 0.05 0.06 0.07 0.07 0.08 0.09 0.09 0.08 0.09 0.09
0.01 0.04 0.06 0.04 0.05 0.04 0.01 0.00 0.00 0.00 0.01 0.01 0.00 0.00 0.00 0.01 0.03 0.03 0.02 0.04 0.06 0.06 0.03 0.03 0.03 0.04 0.05 0.04 0.02 0.03 0.03 0.02 0.04 0.05 0.05 0.06 0.09 0.11 0.12 0.08 0.07 0.08 0.08 0.09 0.09 0.09 0.11 0.10 0.10
0.01 0.03 0.03 0.01 0.01 0.01 0.00 0.01 0.01 0.00 0.01 0.01 0.01 0.00 0.00 0.01 0.01 0.01 0.01 0.03 0.06 0.07 0.04 0.03 0.03 0.03 0.04 0.04 0.05 0.07 0.06 0.04 0.07 0.09 0.09 0.12 0.11 0.11 0.13 0.14 0.11 0.10 0.10 0.11 0.12 0.12 0.11 0.12 0.11
0.01 0.02 0.00 0.00 0.00 0.00 0.00 0.01 0.01 0.01 0.01 0.01 0.01 0.01 0.01 0.02 0.02 0.03 0.04 0.03 0.07 0.05 0.03 0.02 0.02 0.03 0.04 0.05 0.06 0.07 0.08 0.08 0.10 0.11 0.09 0.12 0.12 0.13 0.18 0.18 0.18 0.15 0.13 0.13 0.13 0.13 0.11 0.13 0.11
0.01 0.01 0.00 0.00 0.00 0.00 0.00 0.00 0.00 0.01 0.01 0.00 0.01 0.01 0.01 0.02 0.03 0.04 0.03 0.02 0.03 0.05 0.05 0.04 0.04 0.04 0.05 0.04 0.04 0.05 0.06 0.06 0.09 0.10 0.11 0.11 0.12 0.16 0.19 0.20 0.21 0.21 0.18 0.18 0.15 0.14 0.10 0.10 0.09
0.01 0.00 0.00 0.00 0.00 0.00 0.00 0.00 0.00 0.00 0.01 0.00 0.00 0.01 0.01 0.01 0.02 0.03 0.02 0.02 0.01 0.03 0.04 0.04 0.05 0.05 0.05 0.04 0.05 0.05 0.05 0.04 0.05 0.11 0.18 0.18 0.14 0.12 0.16 0.19 0.19 0.18 0.19 0.19 0.18 0.16 0.13 0.10 0.09
0.00 0.00 0.00 0.00 0.00 0.00 0.00 0.00 0.00 0.01 0.03 0.01 0.00 0.01 0.00 0.00 0.01 0.01 0.02 0.01 0.02 0.02 0.03 0.02 0.03 0.03 0.03 0.03 0.04 0.06 0.06 0.05 0.04 0.06 0.13 0.19 0.13 0.11 0.17 0.22 0.21 0.17 0.14 0.18 0.18 0.18 0.16 0.11 0.10
0.00 0.00 0.01 0.00 0.00 0.00 0.02 0.03 0.02 0.01 0.02 0.01 0.01 0.01 0.01 0.00 0.00 0.01 0.01 0.01 0.01 0.01 0.02 0.02 0.01 0.02 0.02 0.02 0.04 0.05 0.07 0.07 0.05 0.05 0.11 0.14 0.15 0.17 0.19 0.20 0.20 0.16 0.12 0.14 0.17 0.18 0.17 0.15 0.14
0.01 0.02 0.02 0.01 0.00 0.00 0.01 0.02 0.01 0.01 0.02 0.02 0.02 0.01 0.01 0.01 0.01 0.01 0.01 0.01 0.01 0.01 0.01 0.02 0.02 0.01 0.02 0.02 0.02 0.03 0.04 0.06 0.06 0.04 0.07 0.12 0.12 0.09 0.10 0.12 0.12 0.13 0.14 0.14 0.15 0.16 0.20 0.21 0.19
0.02 0.07 0.09 0.03 0.01 0.00 0.00 0.01 0.01 0.01 0.03 0.03 0.02 0.01 0.02 0.04 0.01 0.01 0.01 0.01 0.01 0.01 0.01 0.01 0.03 0.03 0.03 0.03 0.02 0.04 0.05 0.05 0.06 0.07 0.09 0.09 0.06 0.05 0.05 0.06 0.06 0.08 0.11 0.11 0.12 0.17 0.18 0.20 0.20
0.02 0.05 0.10 0.05 0.01 0.00 0.00 0.00 0.01 0.00 0.01 0.02 0.03 0.02 0.02 0.02 0.01 0.01 0.01 0.00 0.00 0.01 0.01 0.01 0.02 0.03 0.04 0.03 0.04 0.05 0.04 0.02 0.03 0.05 0.09 0.09 0.08 0.06 0.07 0.05 0.04 0.04 0.06 0.07 0.08 0.09 0.10 0.11 0.12
0.01 0.01 0.02 0.02 0.00 0.00 0.00 0.00 0.01 0.01 0.01 0.02 0.03 0.02 0.01 0.01 0.00 0.01 0.01 0.00 0.00 0.00 0.01 0.01 0.02 0.02 0.03 0.03 0.03 0.05 0.04 0.03 0.02 0.02 0.05 0.08 0.09 0.10 0.11 0.06 0.06 0.05 0.06 0.04 0.05 0.06 0.07 0.05 0.05
0.00 0.01 0.02 0.01 0.00 0.00 0.00 0.00 0.01 0.01 0.02 0.01 0.01 0.01 0.01 0.00 0.01 0.01 0.01 0.01 0.00 0.00 0.01 0.02 0.02 0.03 0.03 0.03 0.02 0.03 0.03 0.03 0.02 0.02 0.05 0.06 0.08 0.09 0.07 0.05 0.04 0.03 0.06 0.04 0.04 0.06 0.06 0.05 0.04
0.00 0.01 0.02 0.02 0.01 0.00 0.01 0.02 0.04 0.01 0.01 0.02 0.01 0.01 0.01 0.02 0.02 0.01 0.01 0.01 0.00 0.01 0.01 0.02 0.02 0.03 0.02 0.02 0.02 0.03 0.04 0.04 0.04 0.03 0.05 0.05 0.04 0.04 0.04 0.03 0.03 0.03 0.03 0.05 0.06 0.05 0.07 0.06 0.05
0.00 0.01 0.01 0.02 0.02 0.01 0.01 0.02 0.04 0.02 0.01 0.02 0.01 0.01 0.01 0.03 0.03 0.01 0.01 0.01 0.01 0.01 0.01 0.01 0.02 0.03 0.03 0.03 0.04 0.05 0.07 0.07 0.06 0.04 0.04 0.04 0.02 0.02 0.02 0.02 0.02 0.02 0.02 0.04 0.03 0.04 0.06 0.05 0.04
0.00 0.00 0.01 0.01 0.02 0.02 0.02 0.02 0.02 0.02 0.01 0.03 0.02 0.01 0.04 0.06 0.03 0.01 0.02 0.01 0.01 0.01 0.02 0.02 0.03 0.03 0.03 0.03 0.04 0.04 0.04 0.04 0.04 0.04 0.05 0.04 0.04 0.02 0.02 0.02 0.02 0.03 0.03 0.02 0.02 0.03 0.03 0.03 0.03
0.00 0.00 0.01 0.01 0.01 0.02 0.03 0.04 0.04 0.02 0.02 0.03 0.01 0.00 0.01 0.02 0.02 0.02 0.02 0.02 0.02 0.02 0.02 0.02 0.03 0.03 0.02 0.02 0.02 0.02 0.04 0.05 0.05 0.05 0.04 0.03 0.04 0.03 0.02 0.02 0.03 0.03 0.04 0.03 0.02 0.02 0.03 0.03 0.03
0.00 0.01 0.03 0.02 0.02 0.02 0.01 0.02 0.02 0.01 0.01 0.00 0.00 0.00 0.00 0.00 0.01 0.01 0.01 0.02 0.01 0.01 0.01 0.01 0.01 0.02 0.02 0.03 0.03 0.02 0.03 0.04 0.03 0.02 0.03 0.04 0.05 0.04 0.03 0.02 0.02 0.03 0.03 0.02 0.02 0.02 0.02 0.02 0.02
0.00 0.00 0.01 0.01 0.01 0.01 0.01 0.01 0.02 0.02 0.01 0.00 0.00 0.00 0.01 0.01 0.01 0.01 0.01 0.02 0.01 0.01 0.01 0.00 0.01 0.01 0.02 0.03 0.03 0.04 0.03 0.03 0.02 0.03 0.03 0.04 0.04 0.03 0.03 0.02 0.01 0.02 0.02 0.02 0.03 0.02 0.02 0.03 0.03
0.00 0.00 0.00 0.00 0.01 0.01 0.03 0.03 0.02 0.01 0.02 0.01 0.00 0.00 0.01 0.01 0.02 0.02 0.01 0.01 0.01 0.01 0.01 0.00 0.01 0.01 0.02 0.03 0.03 0.03 0.03 0.04 0.04 0.04 0.04 0.03 0.03 0.03 0.02 0.02 0.02 0.02 0.02 0.02 0.02 0.01 0.02 0.04 0.03
0.00 0.00 0.00 0.00 0.01 0.02 0.03 0.04 0.03 0.02 0.01 0.01 0.00 0.00 0.00 0.01 0.02 0.02 0.01 0.02 0.03 0.04 0.01 0.01 0.01 0.02 0.02 0.02 0.02 0.03 0.03 0.04 0.05 0.05 0.04 0.04 0.04 0.03 0.02 0.03 0.03 0.02 0.02 0.03 0.03 0.01 0.02 0.03 0.03
0.00 0.00 0.00 0.00 0.01 0.02 0.03 0.03 0.02 0.01 0.01 0.01 0.00 0.00 0.00 0.01 0.01 0.02 0.01 0.02 0.02 0.03 0.02 0.01 0.01 0.01 0.01 0.02 0.02 0.03 0.04 0.04 0.05 0.04 0.04 0.04 0.05 0.05 0.05 0.04 0.03 0.03 0.02 0.02 0.03 0.03 0.04 0.03 0.02
0.00 0.00 0.00 0.00 0.00 0.01 0.02 0.02 0.01 0.02 0.01 0.02 0.01 0.01 0.00 0.00 0.00 0.01 0.01 0.01 0.01 0.01 0.01 0.01 0.01 0.01 0.01 0.02 0.03 0.04 0.04 0.05 0.04 0.03 0.04 0.04 0.04 0.05 0.06 0.06 0.05 0.04 0.04 0.03 0.03 0.04 0.04 0.03 0.03
MSLP
1006.17 1006.82 1007.46 1007.99 1008.28 1008.28 1007.98 1007.46 1006.83 1006.25 1005.86 1005.77 1005.99 1006.51 1007.21 1007.97 1008.66 1009.15 1009.42 1009.47 1009.38 1009.26 1009.19 1009.25 1009.48 1009.86 1010.32 1010.78 1011.19 1011.49 1011.69 1011.80 1011.87 1011.96 1012.10 1012.31 1012.56 1012.83 1013.06 1013.23 1013.33 1013.36 1013.35 1013.33 1013.33 1013.36 1013.41 1013.47 1013.50
1006.12 1006.81 1007.43 1007.87 1008.04 1007.90 1007.48 1006.88 1006.24 1005.70 1005.40 1005.41 1005.74 1006.33 1007.06 1007.82 1008.46 1008.90 1009.14 1009.19 1009.15 1009.11 1009.15 1009.34 1009.68 1010.13 1010.63 1011.09 1011.47 1011.73 1011.88 1011.97 1012.04 1012.14 1012.30 1012.52 1012.78 1013.03 1013.24 1013.37 1013.43 1013.44 1013.42 1013.41 1013.44 1013.49 1013.56 1013.62 1013.62
1006.11 1006.81 1007.39 1007.74 1007.80 1007.54 1007.04 1006.40 1005.77 1005.30 1005.10 1005.22 1005.64 1006.29 1007.04 1007.77 1008.36 1008.75 1008.95 1009.01 1009.01 1009.05 1009.21 1009.51 1009.95 1010.46 1010.99 1011.44 1011.79 1012.01 1012.12 1012.18 1012.24 1012.35 1012.52 1012.74 1012.98 1013.20 1013.37 1013.46 1013.49 1013.49 1013.48 1013.50 1013.55 1013.64 1013.72 1013.77 1013.74
1006.08 1006.78 1007.31 1007.58 1007.55 1007.22 1006.68 1006.05 1005.48 1005.11 1005.02 1005.25 1005.76 1006.45 1007.20 1007.88 1008.41 1008.75 1008.91 1008.97 1009.01 1009.13 1009.37 1009.76 1010.27 1010.82 1011.35 1011.79 1012.10 1012.28 1012.37 1012.41 1012.47 1012.58 1012.75 1012.96 1013.18 1013.36 1013.49 1013.55 1013.56 1013.55 1013.55 1013.60 1013.69 1013.80 1013.90 1013.92 1013.85
1006.00 1006.67 1007.15 1007.37 1007.29 1006.95 1006.42 1005.86 1005.39 1005.14 1005.18 1005.52 1006.10 1006.81 1007.54 1008.18 1008.64 1008.92 1009.05 1009.11 1009.18 1009.35 1009.65 1010.09 1010.62 1011.18 1011.69 1012.09 1012.36 1012.51 1012.57 1012.61 1012.68 1012.80 1012.97 1013.18 1013.38 1013.53 1013.62 1013.65 1013.64 1013.63 1013.65 1013.72 1013.84 1013.97 1014.06 1014.06 1013.94
1005.81 1006.43 1006.87 1007.07 1006.99 1006.69 1006.25 1005.81 1005.48 1005.38 1005.55 1005.98 1006.62 1007.34 1008.05 1008.63 1009.04 1009.27 1009.37 1009.42 1009.51 1009.70 1010.02 1010.46 1010.98 1011.50 1011.96 1012.31 1012.53 1012.64 1012.70 1012.75 1012.83 1012.97 1013.17 1013.38 1013.57 1013.70 1013.77 1013.77 1013.74 1013.73 1013.75 1013.84 1013.97 1014.10 1014.18 1014.16 1014.00
1005.48 1006.05 1006.47 1006.68 1006.65 1006.45 1006.15 1005.86 1005.70 1005.76 1006.06 1006.58 1007.26 1007.98 1008.65 1009.19 1009.55 1009.74 1009.82 1009.87 1009.96 1010.15 1010.46 1010.87 1011.33 1011.78 1012.16 1012.44 1012.60 1012.69 1012.73 1012.80 1012.91 1013.09 1013.30 1013.53 1013.72 1013.85 1013.89 1013.88 1013.84 1013.81 1013.83 1013.91 1014.03 1014.15 1014.21 1014.17 1013.98
1005.03 1005.56 1005.98 1006.23 1006.30 1006.23 1006.10 1006.00 1006.02 1006.22 1006.64 1007.23 1007.92 1008.63 1009.27 1009.77 1010.10 1010.27 1010.35 1010.39 1010.48 1010.66 1010.93 1011.29 1011.67 1012.03 1012.32 1012.51 1012.61 1012.66 1012.70 1012.78 1012.93 1013.14 1013.38 1013.63 1013.82 1013.95 1013.98 1013.95 1013.89 1013.85 1013.86 1013.91 1014.01 1014.11 1014.14 1014.07 1013.87
1004.54 1005.05 1005.48 1005.79 1005.98 1006.07 1006.11 1006.19 1006.37 1006.70 1007.20 1007.82 1008.52 1009.21 1009.81 1010.28 1010.59 1010.77 1010.86 1010.93 1011.02 1011.18 1011.42 1011.70 1012.00 1012.26 1012.45 1012.56 1012.60 1012.62 1012.65 1012.74 1012.91 1013.14 1013.41 1013.66 1013.87 1013.99 1014.02 1013.98 1013.91 1013.84 1013.82 1013.84 1013.90 1013.96 1013.96 1013.88 1013.68
1004.12 1004.62 1005.08 1005.46 1005.76 1005.99 1006.19 1006.42 1006.72 1007.14 1007.68 1008.31 1008.98 1009.63 1010.20 1010.65 1010.97 1011.17 1011.30 1011.40 1011.52 1011.67 1011.88 1012.10 1012.32 1012.49 1012.60 1012.64 1012.63 1012.62 1012.64 1012.72 1012.89 1013.13 1013.39 1013.65 1013.85 1013.97 1014.00 1013.95 1013.87 1013.78 1013.73 1013.72 1013.73 1013.74 1013.71 1013.61 1013.42
1003.88 1004.38 1004.87 1005.32 1005.70 1006.04 1006.35 1006.68 1007.05 1007.50 1008.03 1008.62 1009.24 1009.85 1010.39 1010.83 1011.17 1011.42 1011.60 1011.75 1011.91 1012.08 1012.27 1012.45 1012.62 1012.73 1012.78 1012.77 1012.73 1012.69 1012.69 1012.76 1012.91 1013.12 1013.36 1013.60 1013.79 1013.90 1013.93 1013.88 1013.80 1013.71 1013.63 1013.57 1013.54 1013.50 1013.43 1013.31 1013.13
1003.92 1004.41 1004.92 1005.40 1005.83 1006.22 1006.59 1006.94 1007.32 1007.74 1008.22 1008.75 1009.30 1009.85 1010.36 1010.81 1011.18 1011.49 1011.73 1011.95 1012.15 1012.35 1012.55 1012.72 1012.86 1012.95 1012.98 1012.95 1012.90 1012.85 1012.83 1012.87 1012.98 1013.14 1013.34 1013.53 1013.69 1013.79 1013.83 1013.80 1013.73 1013.64 1013.55 1013.46 1013.39 1013.30 1013.19 1013.04 1012.85
1004.24 1004.73 1005.22 1005.69 1006.12 1006.51 1006.86 1007.19 1007.51 1007.86 1008.25 1008.69 1009.16 1009.64 1010.13 1010.59 1011.00 1011.37 1011.69 1011.98 1012.23 1012.47 1012.69 1012.88 1013.02 1013.12 1013.16 1013.15 1013.11 1013.06 1013.03 1013.03 1013.09 1013.18 1013.31 1013.45 1013.58 1013.67 1013.72 1013.71 1013.68 1013.61 1013.52 1013.42 1013.31 1013.18 1013.02 1012.84 1012.64
1004.82 1005.27 1005.71 1006.12 1006.50 1006.84 1007.12 1007.37 1007.61 1007.85 1008.13 1008.46 1008.85 1009.28 1009.75 1010.22 1010.68 1011.11 1011.49 1011.84 1012.15 1012.42 1012.66 1012.87 1013.04 1013.18 1013.26 1013.30 1013.30 1013.27 1013.24 1013.21 1013.21 1013.23 1013.29 1013.37 1013.45 1013.54 1013.61 1013.65 1013.66 1013.63 1013.57 1013.48 1013.34 1013.18 1012.98 1012.76 1012.53
1005.52 1005.90 1006.26 1006.59 1006.88 1007.13 1007.32 1007.47 1007.59 1007.73 1007.90 1008.13 1008.44 1008.83 1009.29 1009.78 1010.28 1010.76 1011.20 1011.59 1011.93 1012.22 1012.48 1012.71 1012.92 1013.10 1013.24 1013.35 1013.41 1013.42 1013.40 1013.36 1013.31 1013.27 1013.26 1013.28 1013.33 1013.42 1013.51 1013.61 1013.68 1013.71 1013.69 1013.61 1013.47 1013.28 1013.05 1012.79 1012.54
1006.20 1006.48 1006.74 1006.98 1007.18 1007.34 1007.44 1007.49 1007.51 1007.54 1007.61 1007.76 1008.01 1008.37 1008.82 1009.33 1009.87 1010.39 1010.86 1011.28 1011.62 1011.92 1012.18 1012.42 1012.65 1012.88 1013.09 1013.27 1013.40 1013.47 1013.49 1013.44 1013.37 1013.28 1013.21 1013.19 1013.22 1013.30 1013.43 1013.58 1013.72 1013.81 1013.85 1013.80 1013.67 1013.47 1013.21 1012.93 1012.66
1006.75 1006.92 1007.08 1007.23 1007.36 1007.45 1007.49 1007.47 1007.41 1007.35 1007.34 1007.42 1007.62 1007.95 1008.40 1008.93 1009.50 1010.05 1010.54 1010.96 1011.30 1011.58 1011.82 1012.05 1012.29 1012.54 1012.81 1013.06 1013.27 1013.42 1013.48 1013.46 1013.38 1013.27 1013.16 1013.10 1013.11 1013.20 1013.36 1013.56 1013.75 1013.91 1014.00 1013.99 1013.88 1013.69 1013.43 1013.14 1012.86
1007.07 1007.15 1007.25 1007.36 1007.47 1007.54 1007.55 1007.49 1007.39 1007.26 1007.18 1007.19 1007.33 1007.63 1008.06 1008.60 1009.19 1009.76 1010.27 1010.69 1011.01 1011.26 1011.46 1011.66 1011.89 1012.16 1012.47 1012.78 1013.06 1013.27 1013.39 1013.42 1013.35 1013.24 1013.11 1013.04 1013.03 1013.12 1013.29 1013.52 1013.76 1013.97 1014.10 1014.13 1014.05 1013.88 1013.64 1013.37 1013.12
1007.18 1007.21 1007.30 1007.44 1007.59 1007.70 1007.74 1007.68 1007.54 1007.35 1007.19 1007.11 1007.18 1007.41 1007.81 1008.33 1008.93 1009.51 1010.03 1010.45 1010.76 1010.98 1011.15 1011.32 1011.52 1011.79 1012.11 1012.47 1012.80 1013.08 1013.27 1013.34 1013.31 1013.21 1013.08 1012.99 1012.97 1013.05 1013.22 1013.46 1013.73 1013.96 1014.13 1014.19 1014.15 1014.01 1013.80 1013.58 1013.37
1007.14 1007.19 1007.35 1007.59 1007.85 1008.06 1008.16 1008.13 1007.95 1007.69 1007.42 1007.22 1007.16 1007.29 1007.61 1008.09 1008.67 1009.27 1009.81 1010.24 1010.56 1010.77 1010.91 1011.05 1011.23 1011.48 1011.80 1012.18 1012.56 1012.89 1013.14 1013.26 1013.27 1013.19 1013.07 1012.97 1012.93 1012.99 1013.14 1013.37 1013.63 1013.87 1014.05 1014.14 1014.13 1014.03 1013.88 1013.71 1013.56
1007.05 1007.19 1007.50 1007.92 1008.35 1008.71 1008.91 1008.90 1008.68 1008.31 1007.88 1007.49 1007.25 1007.22 1007.41 1007.82 1008.36 1008.96 1009.53 1010.00 1010.35 1010.58 1010.73 1010.86 1011.02 1011.25 1011.57 1011.95 1012.35 1012.72 1013.01 1013.18 1013.23 1013.18 1013.08 1012.97 1012.90 1012.92 1013.04 1013.23 1013.46 1013.69 1013.87 1013.97 1013.99 1013.94 1013.84 1013.74 1013.67
1007.01 1007.32 1007.85 1008.49 1009.15 1009.67 1009.97 1009.97 1009.69 1009.16 1008.52 1007.89 1007.41 1007.16 1007.18 1007.46 1007.95 1008.54 1009.14 1009.67 1010.08 1010.36 1010.55 1010.69 1010.85 1011.07 1011.38 1011.75 1012.16 1012.56 1012.88 1013.09 1013.18 1013.15 1013.06 1012.94 1012.85 1012.83 1012.90 1013.04 1013.23 1013.43 1013.60 1013.71 1013.75 1013.73 1013.69 1013.65 1013.65
1007.09 1007.61 1008.39 1009.29 1010.17 1010.87 1011.25 1011.25 1010.86 1010.16 1009.27 1008.36 1007.59 1007.07 1006.88 1007.01 1007.41 1007.99 1008.62 1009.22 1009.71 1010.07 1010.32 1010.51 1010.68 1010.90 1011.20 1011.56 1011.96 1012.36 1012.71 1012.94 1013.06 1013.06 1012.98 1012.86 1012.75 1012.69 1012.71 1012.80 1012.95 1013.12 1013.27 1013.38 1013.44 1013.45 1013.45 1013.46 1013.50
1007.26 1008.02 1009.05 1010.20 1011.29 1012.13 1012.59 1012.56 1012.06 1011.16 1010.02 1008.82 1007.76 1006.97 1006.54 1006.50 1006.80 1007.34 1008.00 1008.66 1009.23 1009.68 1010.01 1010.25 1010.46 1010.68 1010.97 1011.31 1011.71 1012.10 1012.45 1012.71 1012.85 1012.87 1012.80 1012.68 1012.56 1012.48 1012.46 1012.52 1012.63 1012.77 1012.91 1013.02 1013.09 1013.13 1013.15 1013.19 1013.26
1007.48 1008.45 1009.69 1011.04 1012.29 1013.25 1013.75 1013.70 1013.10 1012.03 1010.67 1009.23 1007.90 1006.86 1006.22 1006.02 1006.20 1006.69 1007.35 1008.05 1008.69 1009.21 1009.61 1009.90 1010.14 1010.38 1010.65 1010.98 1011.35 1011.74 1012.08 1012.35 1012.50 1012.55 1012.50 1012.40 1012.28 1012.19 1012.16 1012.20 1012.30 1012.43 1012.56 1012.68 1012.76 1012.81 1012.84 1012.88 1012.94
1007.66 1008.77 1010.15 1011.62 1012.97 1014.00 1014.52 1014.46 1013.80 1012.63 1011.14 1009.53 1008.03 1006.81 1006.00 1005.65 1005.73 1006.15 1006.78 1007.48 1008.15 1008.72 1009.16 1009.49 1009.75 1009.98 1010.25 1010.55 1010.90 1011.26 1011.60 1011.87 1012.04 1012.11 1012.09 1012.01 1011.91 1011.83 1011.81 1011.86 1011.96 1012.10 1012.25 1012.38 1012.47 1012.52 1012.55 1012.57 1012.60
1007.71 1008.87 1010.30 1011.80 1013.17 1014.21 1014.76 1014.71 1014.06 1012.88 1011.37 1009.72 1008.16 1006.86 1005.96 1005.52 1005.50 1005.84 1006.41 1007.07 1007.72 1008.29 1008.73 1009.06 1009.32 1009.54 1009.78 1010.06 1010.38 1010.72 1011.04 1011.31 1011.49 1011.58 1011.59 1011.54 1011.47 1011.43 1011.43 1011.50 1011.63 1011.80 1011.97 1012.12 1012.23 1012.29 1012.30 1012.29 1012.27
1007.62 1008.72 1010.08 1011.51 1012.83 1013.84 1014.39 1014.38 1013.81 1012.75 1011.34 1009.80 1008.31 1007.05 1006.15 1005.66 1005.58 1005.83 1006.31 1006.89 1007.47 1007.98 1008.39 1008.69 1008.92 1009.12 1009.33 1009.58 1009.87 1010.17 1010.47 1010.73 1010.91 1011.02 1011.05 1011.03 1011.00 1011.00 1011.04 1011.15 1011.32 1011.53 1011.73 1011.91 1012.04 1012.10 1012.09 1012.04 1011.97
1007.40 1008.35 1009.53 1010.79 1011.97 1012.90 1013.45 1013.52 1013.10 1012.23 1011.06 1009.74 1008.45 1007.35 1006.54 1006.08 1005.97 1006.14 1006.52 1006.98 1007.46 1007.87 1008.20 1008.44 1008.62 1008.78 1008.96 1009.17 1009.43 1009.70 1009.97 1010.21 1010.39 1010.49 1010.54 1010.55 1010.55 1010.58 1010.67 1010.82 1011.03 1011.27 1011.51 1011.72 1011.87 1011.93 1011.91 1011.83 1011.71
1007.17 1007.87 1008.78 1009.78 1010.76 1011.57 1012.09 1012.24 1012.01 1011.41 1010.55 1009.56 1008.57 1007.70 1007.06 1006.68 1006.57 1006.69 1006.96 1007.30 1007.64 1007.94 1008.17 1008.34 1008.47 1008.59 1008.73 1008.91 1009.13 1009.37 1009.61 1009.82 1009.97 1010.07 1010.11 1010.13 1010.15 1010.20 1010.32 1010.50 1010.73 1011.01 1011.27 1011.51 1011.67 1011.74 1011.71 1011.60 1011.44
Thickness
5834 5834 5832 5823 5807 5802 5804 5821 5833 5832 5834 5844 5845 5836 5822 5813 5802 5788 5817 5828 5824 5817 5812 5808 5805 5803 5802 5800 5799 5798 5797 5795 5794 5793 5793 5792 5791 5789 5789 5787 5786 5785 5784 5782 5781 5780 5779 5779 5778
5842 5841 5831 5818 5801 5797 5806 5826 5829 5835 5843 5849 5845 5837 5825 5817 5823 5820 5824 5828 5826 5820 5815 5810 5806 5804 5802 5801 5799 5797 5796 5795 5794 5793 5792 5791 5790 5789 5788 5787 5786 5785 5783 5782 5780 5779 5778 5778 5777
5845 5843 5825 5816 5809 5805 5811 5831 5835 5846 5853 5848 5839 5837 5827 5819 5825 5825 5830 5832 5828 5822 5816 5809 5806 5804 5802 5801 5799 5797 5796 5795 5794 5793 5792 5790 5789 5788 5787 5786 5785 5784 5783 5781 5780 5778 5778 5777 5776
5845 5837 5828 5818 5813 5827 5834 5840 5847 5844 5847 5849 5841 5827 5829 5836 5834 5835 5837 5836 5829 5823 5817 5810 5807 5804 5802 5800 5799 5797 5796 5794 5793 5792 5791 5790 5789 5788 5787 5786 5784 5783 5782 5780 5779 5778 5777 5776 5776
5846 5832 5819 5818 5822 5838 5849 5854 5854 5843 5841 5843 5839 5821 5819 5837 5843 5841 5839 5837 5830 5824 5818 5811 5808 5805 5803 5801 5799 5798 5796 5794 5793 5792 5791 5790 5789 5788 5786 5785 5784 5782 5781 5780 5778 5777 5777 5776 5775
5837 5831 5817 5815 5828 5843 5854 5861 5856 5847 5845 5844 5837 5823 5820 5839 5839 5839 5840 5837 5833 5826 5819 5813 5809 5806 5804 5802 5800 5798 5796 5795 5793 5792 5791 5790 5789 5788 5786 5785 5784 5782 5780 5779 5778 5777 5776 5776 5775
5834 5826 5823 5827 5832 5839 5853 5864 5856 5848 5844 5846 5846 5825 5823 5836 5840 5842 5841 5837 5834 5830 5822 5815 5811 5808 5805 5803 5801 5799 5797 5795 5794 5792 5791 5790 5788 5787 5786 5785 5784 5782 5781 5780 5779 5778 5777 5776 5776
5856 5839 5832 5835 5834 5838 5858 5863 5863 5855 5847 5858 5855 5829 5821 5835 5845 5843 5840 5836 5832 5829 5825 5819 5816 5812 5808 5805 5802 5800 5797 5796 5794 5793 5792 5790 5789 5788 5786 5785 5784 5783 5782 5780 5780 5778 5778 5777 5776
5868 5838 5830 5840 5839 5845 5862 5858 5862 5869 5858 5857 5857 5848 5843 5847 5847 5840 5833 5830 5827 5826 5825 5822 5819 5815 5812 5809 5805 5801 5799 5796 5795 5793 5792 5791 5791 5789 5788 5786 5785 5784 5782 5781 5780 5779 5778 5778 5777
5861 5838 5846 5863 5863 5858 5861 5859 5861 5856 5847 5844 5846 5849 5851 5847 5842 5834 5828 5824 5823 5822 5823 5823 5820 5817 5814 5812 5807 5804 5802 5798 5796 5795 5793 5792 5792 5791 5790 5788 5786 5784 5783 5782 5780 5780 5779 5778 5778
5866 5852 5864 5873 5875 5869 5862 5861 5866 5852 5839 5841 5839 5841 5845 5843 5839 5834 5829 5827 5825 5825 5824 5823 5821 5818 5815 5813 5810 5807 5805 5801 5798 5796 5795 5794 5793 5791 5790 5788 5786 5785 5784 5782 5781 5780 5780 5780 5779
5869 5870 5876 5877 5881 5873 5866 5864 5860 5854 5849 5858 5855 5851 5846 5841 5838 5835 5832 5830 5829 5826 5823 5823 5821 5817 5814 5813 5811 5807 5805 5802 5799 5796 5794 5793 5792 5790 5789 5787 5787 5786 5785 5784 5783 5781 5781 5781 5780
5869 5871 5879 5884 5883 5878 5871 5863 5858 5855 5862 5865 5860 5852 5846 5843 5841 5840 5838 5834 5830 5826 5824 5823 5821 5816 5814 5812 5810 5808 5805 5803 5800 5797 5793 5790 5789 5788 5787 5785 5784 5785 5785 5784 5782 5781 5780 5780 5779
5874 5875 5877 5882 5880 5876 5866 5861 5856 5854 5862 5859 5856 5850 5848 5845 5843 5840 5837 5832 5829 5826 5824 5823 5820 5817 5814 5811 5809 5807 5806 5803 5800 5797 5793 5791 5788 5787 5785 5783 5783 5783 5783 5783 5782 5781 5779 5778 5777
5881 5867 5867 5876 5878 5875 5865 5846 5850 5861 5863 5854 5853 5851 5849 5848 5846 5841 5838 5835 5832 5828 5826 5823 5821 5818 5814 5811 5809 5808 5806 5804 5800 5796 5792 5790 5788 5786 5785 5783 5782 5782 5782 5781 5781 5779 5778 5776 5775
5868 5854 5845 5865 5876 5876 5856 5828 5852 5867 5861 5853 5852 5851 5848 5847 5847 5845 5843 5839 5836 5831 5826 5824 5823 5818 5814 5812 5809 5808 5806 5803 5800 5796 5792 5789 5787 5786 5784 5783 5781 5780 5780 5779 5778 5776 5774 5772 5771
5848 5837 5838 5853 5874 5875 5861 5841 5857 5870 5864 5855 5853 5850 5846 5846 5847 5847 5845 5841 5837 5832 5827 5823 5822 5818 5815 5812 5810 5808 5805 5802 5799 5795 5792 5788 5786 5784 5783 5781 5780 5780 5779 5777 5776 5773 5771 5769 5769
5837 5841 5844 5847 5867 5870 5860 5853 5860 5869 5866 5858 5854 5849 5846 5846 5846 5848 5847 5844 5839 5834 5829 5825 5822 5818 5815 5812 5808 5805 5803 5801 5798 5794 5791 5788 5785 5783 5781 5780 5779 5778 5776 5774 5772 5770 5770 5768 5767
5856 5850 5848 5856 5874 5868 5859 5856 5860 5867 5864 5858 5853 5849 5847 5849 5852 5851 5848 5845 5839 5834 5828 5824 5819 5817 5814 5809 5805 5801 5798 5797 5796 5793 5790 5787 5785 5783 5781 5779 5778 5776 5774 5771 5770 5768 5767 5766 5766
5858 5846 5847 5859 5874 5868 5859 5855 5863 5865 5860 5861 5857 5854 5851 5850 5849 5848 5847 5844 5839 5833 5828 5823 5819 5816 5813 5810 5807 5803 5800 5797 5795 5793 5790 5787 5784 5782 5781 5778 5776 5775 5772 5769 5768 5766 5763 5764 5765
5853 5850 5846 5848 5863 5868 5855 5842 5848 5858 5864 5864 5862 5858 5856 5851 5845 5845 5844 5842 5839 5833 5829 5825 5820 5817 5814 5812 5808 5804 5799 5795 5792 5789 5786 5785 5784 5782 5779 5777 5775 5774 5771 5767 5766 5764 5761 5759 5761
5842 5862 5858 5854 5844 5839 5846 5817 5834 5847 5849 5853 5856 5857 5855 5854 5850 5846 5844 5841 5839 5836 5833 5827 5822 5818 5814 5811 5806 5800 5794 5789 5788 5787 5785 5783 5782 5780 5777 5775 5773 5771 5769 5766 5765 5763 5761 5758 5755
5854 5867 5860 5852 5843 5833 5836 5820 5822 5842 5839 5844 5851 5856 5856 5855 5851 5846 5846 5844 5843 5840 5835 5829 5823 5818 5814 5811 5806 5800 5795 5792 5790 5787 5783 5781 5780 5778 5775 5772 5770 5768 5766 5764 5762 5760 5758 5757 5753
5868 5856 5849 5847 5837 5807 5821 5814 5810 5833 5841 5845 5851 5855 5854 5854 5851 5848 5848 5846 5843 5841 5836 5830 5822 5816 5813 5809 5805 5800 5794 5791 5786 5783 5780 5778 5777 5774 5772 5770 5767 5765 5762 5760 5758 5756 5755 5753 5752
5856 5830 5806 5800 5800 5802 5830 5819 5819 5845 5854 5855 5853 5853 5854 5854 5850 5848 5846 5842 5840 5837 5834 5829 5821 5814 5811 5807 5803 5799 5795 5790 5786 5782 5779 5776 5773 5770 5768 5766 5763 5761 5759 5758 5756 5753 5751 5750 5748
5845 5836 5806 5789 5793 5806 5818 5806 5821 5850 5860 5862 5860 5857 5852 5852 5853 5850 5847 5844 5839 5836 5833 5828 5820 5813 5809 5805 5801 5798 5794 5790 5786 5782 5779 5774 5771 5768 5766 5763 5760 5758 5756 5754 5752 5750 5748 5747 5745
5837 5836 5846 5826 5816 5800 5802 5809 5824 5844 5850 5852 5853 5850 5845 5846 5848 5848 5847 5844 5838 5834 5831 5826 5819 5812 5808 5804 5799 5795 5791 5787 5784 5780 5777 5773 5769 5767 5764 5760 5757 5754 5752 5750 5748 5745 5744 5742 5741
5854 5849 5838 5818 5793 5783 5794 5800 5808 5825 5833 5840 5842 5839 5841 5844 5846 5846 5844 5841 5836 5833 5830 5826 5819 5811 5807 5802 5797 5792 5788 5784 5780 5776 5771 5768 5765 5763 5760 5757 5753 5750 5748 5746 5743 5741 5740 5738 5736
5836 5836 5833 5826 5819 5792 5780 5795 5834 5832 5835 5835 5837 5839 5841 5841 5842 5841 5840 5838 5836 5831 5827 5822 5816 5809 5804 5799 5794 5789 5784 5781 5777 5772 5768 5765 5762 5759 5755 5752 5749 5746 5744 5741 5738 5736 5735 5732 5731
5844 5837 5832 5813 5806 5811 5800 5803 5843 5839 5837 5836 5834 5835 5837 5839 5839 5837 5835 5832 5829 5824 5821 5816 5812 5806 5801 5796 5790 5785 5781 5776 5772 5768 5765 5761 5758 5754 5751 5748 5744 5742 5739 5736 5733 5730 5729 5727 5725